QPF
0.07 0.08 0.06 0.05 0.03 0.04 0.04 0.06 0.09 0.11 0.10 0.10 0.09 0.07 0.06 0.07 0.07 0.07 0.03 0.01 0.03 0.08 0.10 0.10 0.08 0.07 0.07 0.07 0.07 0.07 0.07 0.08 0.06 0.05 0.04 0.03 0.02 0.02 0.04 0.07 0.09 0.10 0.12
0.21 0.22 0.18 0.14 0.10 0.11 0.13 0.18 0.16 0.15 0.12 0.11 0.05 0.07 0.08 0.08 0.08 0.06 0.03 0.03 0.02 0.04 0.05 0.08 0.09 0.08 0.06 0.06 0.05 0.05 0.04 0.04 0.03 0.02 0.02 0.02 0.01 0.02 0.04 0.07 0.09 0.08 0.06
0.34 0.31 0.23 0.15 0.16 0.21 0.24 0.21 0.17 0.21 0.10 0.07 0.06 0.08 0.09 0.08 0.06 0.05 0.04 0.03 0.02 0.01 0.01 0.03 0.05 0.06 0.07 0.07 0.06 0.06 0.04 0.02 0.01 0.01 0.01 0.01 0.01 0.01 0.01 0.04 0.06 0.05 0.03
0.25 0.21 0.14 0.09 0.15 0.22 0.22 0.19 0.17 0.18 0.12 0.10 0.11 0.11 0.10 0.07 0.05 0.04 0.03 0.02 0.02 0.01 0.01 0.01 0.01 0.02 0.04 0.06 0.07 0.07 0.05 0.03 0.02 0.01 0.01 0.00 0.00 0.00 0.00 0.01 0.02 0.02 0.01
0.07 0.07 0.05 0.05 0.07 0.09 0.10 0.09 0.13 0.18 0.14 0.17 0.18 0.12 0.08 0.05 0.03 0.02 0.01 0.01 0.02 0.02 0.01 0.01 0.00 0.00 0.01 0.03 0.06 0.08 0.07 0.05 0.03 0.02 0.01 0.00 0.00 0.00 0.00 0.00 0.00 0.00 0.00
0.02 0.02 0.01 0.01 0.03 0.03 0.03 0.04 0.05 0.09 0.08 0.11 0.13 0.09 0.07 0.04 0.03 0.01 0.01 0.01 0.01 0.01 0.01 0.01 0.01 0.00 0.00 0.01 0.02 0.04 0.06 0.06 0.03 0.02 0.02 0.02 0.02 0.01 0.01 0.00 0.00 0.00 0.00
0.00 0.00 0.00 0.00 0.01 0.01 0.01 0.02 0.03 0.03 0.04 0.08 0.10 0.07 0.05 0.02 0.02 0.02 0.01 0.00 0.00 0.00 0.00 0.01 0.01 0.00 0.00 0.00 0.00 0.01 0.03 0.05 0.05 0.03 0.02 0.02 0.02 0.02 0.01 0.01 0.00 0.00 0.00
0.00 0.00 0.00 0.00 0.00 0.00 0.00 0.00 0.01 0.01 0.01 0.05 0.08 0.08 0.05 0.03 0.03 0.01 0.01 0.01 0.00 0.00 0.00 0.00 0.00 0.01 0.01 0.01 0.00 0.00 0.01 0.04 0.08 0.07 0.04 0.02 0.02 0.02 0.01 0.01 0.01 0.00 0.00
0.00 0.00 0.00 0.00 0.00 0.00 0.00 0.00 0.01 0.01 0.02 0.02 0.05 0.07 0.05 0.03 0.02 0.02 0.02 0.01 0.01 0.02 0.01 0.01 0.01 0.01 0.01 0.01 0.02 0.02 0.02 0.03 0.06 0.09 0.09 0.06 0.03 0.02 0.02 0.04 0.04 0.02 0.01
0.00 0.00 0.00 0.00 0.00 0.00 0.01 0.01 0.01 0.02 0.03 0.02 0.03 0.04 0.04 0.05 0.05 0.02 0.02 0.01 0.02 0.02 0.02 0.01 0.01 0.01 0.02 0.02 0.03 0.04 0.05 0.06 0.07 0.09 0.11 0.10 0.08 0.05 0.04 0.04 0.10 0.10 0.04
0.00 0.00 0.00 0.00 0.00 0.00 0.01 0.01 0.02 0.03 0.04 0.04 0.03 0.03 0.04 0.05 0.05 0.05 0.02 0.02 0.04 0.04 0.03 0.03 0.03 0.03 0.04 0.05 0.07 0.06 0.04 0.06 0.08 0.10 0.11 0.11 0.09 0.07 0.06 0.05 0.12 0.20 0.17
0.00 0.00 0.00 0.00 0.00 0.00 0.01 0.01 0.02 0.03 0.04 0.05 0.06 0.05 0.06 0.05 0.04 0.05 0.05 0.05 0.08 0.08 0.08 0.07 0.06 0.06 0.07 0.09 0.09 0.07 0.05 0.05 0.06 0.08 0.08 0.09 0.07 0.06 0.05 0.08 0.15 0.24 0.28
0.00 0.00 0.00 0.00 0.00 0.01 0.01 0.02 0.03 0.03 0.04 0.06 0.08 0.08 0.09 0.08 0.09 0.11 0.11 0.11 0.11 0.12 0.12 0.08 0.06 0.07 0.06 0.09 0.09 0.07 0.05 0.05 0.04 0.04 0.04 0.04 0.05 0.06 0.07 0.08 0.11 0.16 0.21
0.00 0.00 0.00 0.00 0.00 0.00 0.01 0.02 0.03 0.04 0.04 0.06 0.06 0.09 0.10 0.10 0.12 0.14 0.16 0.18 0.16 0.16 0.16 0.10 0.07 0.07 0.08 0.08 0.07 0.06 0.05 0.05 0.04 0.04 0.03 0.03 0.03 0.04 0.05 0.08 0.12 0.16 0.20
0.00 0.00 0.00 0.00 0.00 0.00 0.01 0.01 0.02 0.02 0.04 0.06 0.07 0.10 0.12 0.14 0.14 0.15 0.19 0.22 0.22 0.19 0.16 0.13 0.10 0.10 0.09 0.07 0.07 0.08 0.05 0.04 0.04 0.03 0.03 0.02 0.03 0.02 0.02 0.03 0.05 0.07 0.11
0.00 0.00 0.00 0.00 0.00 0.00 0.01 0.02 0.02 0.03 0.04 0.07 0.08 0.09 0.12 0.14 0.15 0.16 0.19 0.21 0.23 0.24 0.17 0.13 0.14 0.15 0.13 0.09 0.07 0.05 0.03 0.03 0.03 0.02 0.02 0.02 0.02 0.01 0.01 0.01 0.01 0.02 0.04
0.00 0.00 0.00 0.00 0.00 0.00 0.01 0.02 0.02 0.03 0.05 0.07 0.08 0.10 0.12 0.15 0.17 0.17 0.19 0.19 0.19 0.20 0.15 0.11 0.12 0.12 0.11 0.09 0.07 0.05 0.04 0.03 0.02 0.02 0.02 0.02 0.01 0.01 0.01 0.00 0.00 0.00 0.01
0.00 0.00 0.00 0.00 0.00 0.00 0.01 0.02 0.02 0.03 0.04 0.06 0.08 0.10 0.12 0.13 0.14 0.15 0.16 0.17 0.16 0.17 0.14 0.12 0.09 0.08 0.08 0.08 0.08 0.05 0.03 0.02 0.01 0.02 0.01 0.01 0.01 0.01 0.01 0.01 0.00 0.00 0.00
0.01 0.01 0.00 0.00 0.00 0.01 0.01 0.01 0.02 0.02 0.03 0.04 0.07 0.10 0.11 0.12 0.13 0.14 0.15 0.15 0.15 0.15 0.13 0.10 0.07 0.05 0.05 0.05 0.06 0.04 0.03 0.01 0.00 0.01 0.01 0.01 0.01 0.00 0.00 0.00 0.00 0.00 0.00
0.02 0.02 0.01 0.00 0.00 0.01 0.01 0.01 0.01 0.02 0.03 0.04 0.07 0.09 0.10 0.12 0.14 0.17 0.16 0.12 0.11 0.11 0.10 0.06 0.04 0.04 0.04 0.04 0.03 0.02 0.02 0.01 0.00 0.00 0.00 0.00 0.00 0.00 0.00 0.00 0.00 0.00 0.00
0.02 0.03 0.02 0.01 0.01 0.00 0.01 0.01 0.01 0.01 0.03 0.03 0.05 0.08 0.08 0.11 0.15 0.15 0.13 0.09 0.06 0.06 0.06 0.05 0.04 0.04 0.03 0.02 0.02 0.01 0.01 0.00 0.00 0.01 0.01 0.01 0.01 0.01 0.00 0.00 0.00 0.00 0.00
0.03 0.04 0.03 0.02 0.01 0.00 0.00 0.01 0.01 0.02 0.02 0.02 0.02 0.04 0.05 0.07 0.08 0.10 0.09 0.07 0.05 0.04 0.03 0.03 0.03 0.03 0.02 0.02 0.01 0.00 0.00 0.00 0.00 0.01 0.01 0.00 0.00 0.00 0.00 0.00 0.00 0.00 0.00
0.04 0.05 0.05 0.04 0.03 0.02 0.00 0.00 0.01 0.02 0.01 0.01 0.02 0.02 0.03 0.04 0.04 0.05 0.05 0.03 0.02 0.01 0.01 0.01 0.01 0.01 0.01 0.01 0.00 0.00 0.00 0.00 0.00 0.00 0.00 0.00 0.00 0.00 0.00 0.00 0.00 0.00 0.00
0.05 0.06 0.07 0.07 0.06 0.03 0.00 0.00 0.00 0.01 0.01 0.01 0.01 0.01 0.03 0.03 0.03 0.03 0.03 0.02 0.01 0.00 0.00 0.00 0.00 0.00 0.00 0.00 0.00 0.00 0.00 0.00 0.00 0.00 0.00 0.01 0.01 0.01 0.01 0.00 0.00 0.00 0.00
0.08 0.09 0.10 0.10 0.09 0.05 0.00 0.00 0.00 0.00 0.01 0.01 0.00 0.01 0.01 0.01 0.02 0.02 0.02 0.02 0.01 0.00 0.00 0.00 0.00 0.00 0.00 0.00 0.00 0.00 0.00 0.00 0.00 0.00 0.00 0.00 0.01 0.01 0.02 0.01 0.00 0.00 0.00
0.14 0.17 0.16 0.14 0.12 0.08 0.02 0.00 0.00 0.00 0.00 0.00 0.00 0.00 0.00 0.00 0.00 0.00 0.01 0.01 0.00 0.00 0.00 0.00 0.00 0.00 0.00 0.00 0.00 0.00 0.00 0.00 0.00 0.00 0.00 0.00 0.01 0.02 0.02 0.01 0.00 0.00 0.00
MSLP
1012.94 1013.02 1013.04 1013.01 1012.94 1012.84 1012.74 1012.65 1012.56 1012.48 1012.39 1012.29 1012.17 1012.03 1011.91 1011.82 1011.78 1011.83 1011.95 1012.15 1012.39 1012.64 1012.88 1013.07 1013.21 1013.32 1013.39 1013.48 1013.60 1013.78 1014.02 1014.32 1014.66 1015.02 1015.38 1015.73 1016.06 1016.37 1016.66 1016.95 1017.24 1017.55 1017.86
1012.64 1012.72 1012.75 1012.73 1012.66 1012.55 1012.43 1012.30 1012.18 1012.06 1011.94 1011.81 1011.67 1011.53 1011.39 1011.28 1011.22 1011.23 1011.32 1011.47 1011.67 1011.89 1012.11 1012.31 1012.47 1012.59 1012.70 1012.82 1012.95 1013.13 1013.36 1013.64 1013.96 1014.30 1014.65 1015.00 1015.33 1015.66 1015.97 1016.29 1016.60 1016.92 1017.25
1012.37 1012.45 1012.48 1012.46 1012.38 1012.27 1012.13 1011.99 1011.84 1011.70 1011.56 1011.41 1011.25 1011.08 1010.91 1010.77 1010.66 1010.61 1010.63 1010.72 1010.87 1011.06 1011.27 1011.47 1011.66 1011.83 1011.98 1012.13 1012.29 1012.48 1012.70 1012.96 1013.25 1013.57 1013.89 1014.23 1014.56 1014.90 1015.23 1015.56 1015.90 1016.24 1016.58
1012.14 1012.19 1012.21 1012.17 1012.09 1011.97 1011.82 1011.66 1011.51 1011.35 1011.20 1011.03 1010.85 1010.66 1010.45 1010.25 1010.08 1009.96 1009.90 1009.92 1010.01 1010.16 1010.35 1010.57 1010.79 1011.01 1011.21 1011.40 1011.60 1011.80 1012.01 1012.25 1012.52 1012.80 1013.10 1013.42 1013.75 1014.09 1014.43 1014.79 1015.14 1015.50 1015.86
1011.94 1011.96 1011.94 1011.88 1011.78 1011.64 1011.48 1011.31 1011.14 1010.98 1010.82 1010.65 1010.45 1010.23 1009.99 1009.74 1009.50 1009.29 1009.15 1009.09 1009.11 1009.22 1009.40 1009.62 1009.88 1010.14 1010.39 1010.63 1010.86 1011.07 1011.29 1011.51 1011.75 1012.00 1012.28 1012.58 1012.90 1013.24 1013.60 1013.97 1014.34 1014.72 1015.10
1011.76 1011.74 1011.69 1011.60 1011.46 1011.30 1011.12 1010.93 1010.76 1010.59 1010.42 1010.24 1010.04 1009.80 1009.52 1009.22 1008.92 1008.64 1008.42 1008.29 1008.25 1008.31 1008.47 1008.69 1008.97 1009.26 1009.55 1009.83 1010.08 1010.31 1010.53 1010.74 1010.96 1011.19 1011.44 1011.73 1012.04 1012.37 1012.73 1013.11 1013.50 1013.90 1014.30
1011.62 1011.57 1011.48 1011.35 1011.18 1010.98 1010.77 1010.56 1010.37 1010.19 1010.01 1009.82 1009.61 1009.36 1009.06 1008.73 1008.38 1008.05 1007.77 1007.58 1007.48 1007.50 1007.63 1007.85 1008.12 1008.43 1008.74 1009.04 1009.31 1009.55 1009.76 1009.97 1010.17 1010.38 1010.62 1010.89 1011.18 1011.51 1011.86 1012.24 1012.63 1013.04 1013.45
1011.52 1011.45 1011.34 1011.18 1010.97 1010.74 1010.49 1010.24 1010.02 1009.81 1009.62 1009.42 1009.20 1008.94 1008.63 1008.28 1007.91 1007.55 1007.24 1007.01 1006.88 1006.86 1006.96 1007.15 1007.42 1007.72 1008.04 1008.33 1008.60 1008.84 1009.05 1009.24 1009.43 1009.63 1009.85 1010.10 1010.37 1010.68 1011.01 1011.37 1011.75 1012.15 1012.56
1011.44 1011.38 1011.26 1011.08 1010.85 1010.58 1010.29 1010.00 1009.73 1009.49 1009.27 1009.05 1008.81 1008.55 1008.25 1007.90 1007.54 1007.18 1006.87 1006.62 1006.47 1006.44 1006.51 1006.68 1006.93 1007.21 1007.50 1007.78 1008.04 1008.26 1008.46 1008.64 1008.81 1008.99 1009.19 1009.41 1009.66 1009.93 1010.22 1010.54 1010.88 1011.25 1011.63
1011.36 1011.32 1011.22 1011.04 1010.79 1010.49 1010.16 1009.83 1009.51 1009.22 1008.95 1008.70 1008.45 1008.19 1007.90 1007.58 1007.25 1006.92 1006.64 1006.42 1006.28 1006.25 1006.31 1006.47 1006.68 1006.94 1007.20 1007.45 1007.68 1007.88 1008.05 1008.21 1008.37 1008.53 1008.70 1008.89 1009.10 1009.32 1009.56 1009.81 1010.09 1010.39 1010.73
1011.24 1011.24 1011.16 1010.99 1010.74 1010.42 1010.06 1009.68 1009.31 1008.96 1008.65 1008.36 1008.09 1007.83 1007.56 1007.28 1007.01 1006.74 1006.52 1006.35 1006.27 1006.26 1006.34 1006.49 1006.70 1006.92 1007.15 1007.37 1007.56 1007.73 1007.88 1008.02 1008.15 1008.29 1008.44 1008.59 1008.75 1008.91 1009.08 1009.25 1009.44 1009.66 1009.92
1011.03 1011.07 1011.02 1010.87 1010.63 1010.30 1009.92 1009.50 1009.07 1008.67 1008.31 1007.98 1007.69 1007.43 1007.19 1006.97 1006.76 1006.59 1006.45 1006.38 1006.37 1006.42 1006.55 1006.72 1006.92 1007.13 1007.34 1007.52 1007.68 1007.82 1007.94 1008.06 1008.17 1008.29 1008.41 1008.53 1008.64 1008.74 1008.84 1008.92 1009.02 1009.13 1009.29
1010.72 1010.78 1010.75 1010.63 1010.40 1010.07 1009.67 1009.22 1008.76 1008.31 1007.90 1007.54 1007.23 1006.98 1006.77 1006.60 1006.48 1006.41 1006.38 1006.42 1006.51 1006.65 1006.84 1007.06 1007.28 1007.50 1007.70 1007.86 1008.00 1008.11 1008.22 1008.31 1008.41 1008.52 1008.62 1008.72 1008.79 1008.84 1008.87 1008.88 1008.88 1008.89 1008.94
1010.32 1010.36 1010.34 1010.23 1010.01 1009.68 1009.28 1008.82 1008.33 1007.85 1007.41 1007.03 1006.71 1006.46 1006.29 1006.18 1006.15 1006.18 1006.27 1006.43 1006.63 1006.88 1007.15 1007.43 1007.70 1007.94 1008.14 1008.31 1008.43 1008.54 1008.63 1008.72 1008.82 1008.92 1009.02 1009.11 1009.17 1009.20 1009.18 1009.13 1009.05 1008.97 1008.92
1009.84 1009.85 1009.81 1009.69 1009.47 1009.16 1008.77 1008.31 1007.82 1007.33 1006.88 1006.48 1006.17 1005.94 1005.80 1005.75 1005.79 1005.92 1006.12 1006.39 1006.71 1007.06 1007.42 1007.77 1008.09 1008.37 1008.59 1008.77 1008.90 1009.01 1009.10 1009.20 1009.31 1009.43 1009.55 1009.65 1009.72 1009.75 1009.72 1009.64 1009.52 1009.37 1009.24
1009.35 1009.30 1009.21 1009.07 1008.86 1008.56 1008.18 1007.75 1007.28 1006.81 1006.37 1005.99 1005.69 1005.48 1005.37 1005.37 1005.48 1005.68 1005.97 1006.32 1006.73 1007.17 1007.61 1008.02 1008.40 1008.71 1008.97 1009.16 1009.31 1009.43 1009.54 1009.66 1009.79 1009.94 1010.09 1010.24 1010.35 1010.41 1010.41 1010.34 1010.21 1010.04 1009.86
1008.89 1008.76 1008.62 1008.46 1008.24 1007.96 1007.62 1007.23 1006.80 1006.38 1005.98 1005.63 1005.36 1005.18 1005.11 1005.15 1005.29 1005.54 1005.88 1006.29 1006.75 1007.24 1007.72 1008.18 1008.59 1008.94 1009.21 1009.43 1009.59 1009.73 1009.86 1010.01 1010.17 1010.36 1010.57 1010.77 1010.94 1011.07 1011.13 1011.10 1011.01 1010.85 1010.66
1008.49 1008.28 1008.09 1007.90 1007.69 1007.44 1007.15 1006.82 1006.46 1006.10 1005.77 1005.48 1005.26 1005.13 1005.08 1005.14 1005.30 1005.56 1005.91 1006.33 1006.81 1007.30 1007.80 1008.27 1008.69 1009.05 1009.33 1009.56 1009.74 1009.89 1010.04 1010.21 1010.41 1010.64 1010.90 1011.16 1011.41 1011.62 1011.76 1011.82 1011.78 1011.68 1011.51
1008.15 1007.88 1007.66 1007.46 1007.25 1007.04 1006.80 1006.55 1006.28 1006.01 1005.77 1005.56 1005.41 1005.32 1005.31 1005.39 1005.55 1005.79 1006.12 1006.51 1006.95 1007.41 1007.88 1008.32 1008.73 1009.07 1009.35 1009.58 1009.77 1009.93 1010.09 1010.27 1010.49 1010.76 1011.06 1011.39 1011.71 1012.00 1012.23 1012.37 1012.42 1012.39 1012.27
1007.83 1007.53 1007.29 1007.09 1006.91 1006.74 1006.57 1006.40 1006.23 1006.07 1005.93 1005.82 1005.75 1005.73 1005.76 1005.85 1006.00 1006.22 1006.49 1006.82 1007.20 1007.59 1008.00 1008.39 1008.75 1009.06 1009.33 1009.54 1009.72 1009.88 1010.04 1010.23 1010.46 1010.75 1011.08 1011.44 1011.82 1012.17 1012.48 1012.72 1012.86 1012.90 1012.85
1007.49 1007.19 1006.95 1006.76 1006.61 1006.48 1006.38 1006.29 1006.22 1006.18 1006.16 1006.16 1006.19 1006.24 1006.33 1006.44 1006.59 1006.77 1006.99 1007.25 1007.53 1007.85 1008.17 1008.49 1008.79 1009.07 1009.30 1009.50 1009.67 1009.82 1009.98 1010.16 1010.39 1010.67 1011.00 1011.38 1011.78 1012.18 1012.55 1012.85 1013.06 1013.18 1013.20
1007.07 1006.79 1006.57 1006.39 1006.26 1006.17 1006.13 1006.12 1006.15 1006.23 1006.33 1006.45 1006.60 1006.75 1006.90 1007.05 1007.20 1007.36 1007.53 1007.72 1007.93 1008.15 1008.40 1008.65 1008.89 1009.12 1009.33 1009.51 1009.67 1009.82 1009.97 1010.13 1010.34 1010.60 1010.91 1011.28 1011.67 1012.08 1012.47 1012.81 1013.08 1013.25 1013.33
1006.53 1006.28 1006.08 1005.91 1005.80 1005.74 1005.74 1005.80 1005.93 1006.11 1006.34 1006.59 1006.85 1007.11 1007.35 1007.56 1007.74 1007.89 1008.03 1008.17 1008.31 1008.47 1008.65 1008.84 1009.05 1009.25 1009.44 1009.62 1009.77 1009.91 1010.05 1010.21 1010.39 1010.61 1010.88 1011.21 1011.57 1011.95 1012.34 1012.68 1012.97 1013.18 1013.30
1005.88 1005.65 1005.44 1005.28 1005.17 1005.13 1005.17 1005.29 1005.50 1005.78 1006.12 1006.50 1006.89 1007.26 1007.59 1007.88 1008.11 1008.29 1008.43 1008.54 1008.65 1008.77 1008.90 1009.06 1009.25 1009.44 1009.63 1009.81 1009.98 1010.13 1010.27 1010.41 1010.56 1010.74 1010.97 1011.23 1011.54 1011.87 1012.22 1012.54 1012.82 1013.04 1013.18
1005.12 1004.90 1004.69 1004.53 1004.41 1004.38 1004.45 1004.62 1004.89 1005.26 1005.71 1006.20 1006.71 1007.19 1007.63 1008.00 1008.29 1008.51 1008.68 1008.80 1008.90 1009.01 1009.13 1009.29 1009.47 1009.67 1009.88 1010.08 1010.27 1010.44 1010.58 1010.72 1010.85 1010.99 1011.16 1011.37 1011.61 1011.87 1012.16 1012.44 1012.69 1012.90 1013.03
1004.31 1004.09 1003.87 1003.70 1003.59 1003.57 1003.66 1003.87 1004.21 1004.66 1005.19 1005.78 1006.39 1006.97 1007.50 1007.96 1008.32 1008.59 1008.79 1008.94 1009.07 1009.19 1009.32 1009.49 1009.69 1009.91 1010.14 1010.38 1010.60 1010.79 1010.95 1011.09 1011.20 1011.32 1011.44 1011.59 1011.76 1011.96 1012.18 1012.40 1012.61 1012.79 1012.91
Thickness
5761 5761 5759 5758 5758 5758 5758 5756 5756 5756 5756 5756 5757 5758 5758 5758 5757 5756 5757 5755 5754 5752 5752 5752 5752 5751 5751 5750 5750 5749 5749 5748 5746 5744 5742 5740 5738 5736 5734 5733 5731 5729 5727
5753 5752 5752 5752 5752 5752 5752 5751 5751 5749 5750 5752 5753 5753 5753 5754 5754 5752 5753 5754 5752 5752 5751 5751 5751 5751 5751 5751 5750 5751 5750 5750 5749 5747 5745 5743 5741 5739 5737 5735 5733 5731 5729
5747 5746 5747 5747 5748 5747 5746 5745 5746 5745 5746 5748 5749 5750 5750 5750 5751 5750 5750 5750 5752 5751 5750 5750 5750 5751 5751 5750 5750 5750 5751 5751 5750 5749 5747 5745 5743 5741 5739 5737 5735 5733 5731
5744 5743 5743 5744 5743 5742 5741 5741 5741 5740 5742 5743 5745 5746 5748 5748 5748 5748 5748 5748 5749 5750 5751 5749 5749 5749 5749 5749 5749 5749 5750 5750 5750 5749 5748 5746 5745 5743 5741 5739 5737 5735 5733
5741 5739 5739 5739 5737 5737 5737 5737 5738 5735 5734 5736 5737 5741 5743 5746 5747 5748 5748 5749 5748 5748 5748 5748 5747 5747 5747 5747 5747 5748 5748 5749 5749 5748 5747 5746 5745 5744 5742 5740 5739 5737 5735
5737 5735 5735 5734 5732 5732 5731 5730 5729 5729 5729 5730 5733 5738 5740 5744 5745 5747 5747 5748 5747 5748 5748 5747 5746 5746 5745 5745 5745 5745 5746 5746 5747 5747 5746 5746 5745 5744 5743 5741 5740 5738 5736
5732 5729 5728 5728 5726 5725 5724 5723 5723 5724 5725 5727 5724 5728 5735 5742 5744 5745 5745 5746 5747 5748 5747 5745 5744 5744 5745 5743 5743 5744 5743 5743 5744 5744 5745 5745 5744 5743 5743 5742 5740 5739 5737
5726 5726 5724 5722 5722 5719 5716 5715 5714 5715 5719 5721 5718 5718 5722 5731 5739 5744 5743 5742 5743 5745 5745 5744 5742 5740 5740 5741 5743 5741 5740 5739 5740 5741 5742 5742 5742 5741 5741 5741 5740 5739 5737
5722 5719 5717 5716 5715 5713 5713 5710 5708 5707 5709 5714 5716 5712 5713 5720 5731 5739 5740 5739 5738 5738 5739 5741 5739 5738 5736 5736 5737 5737 5736 5735 5735 5737 5738 5738 5739 5739 5738 5739 5739 5738 5737
5717 5714 5712 5711 5709 5708 5706 5704 5704 5702 5701 5703 5709 5710 5712 5717 5714 5720 5730 5734 5733 5731 5732 5734 5734 5733 5731 5731 5731 5729 5729 5729 5729 5731 5732 5733 5734 5734 5735 5735 5736 5736 5736
5713 5710 5708 5706 5704 5703 5701 5699 5697 5696 5697 5697 5700 5704 5707 5708 5709 5708 5713 5722 5725 5726 5727 5726 5726 5726 5726 5724 5724 5722 5721 5721 5722 5723 5725 5726 5727 5728 5729 5731 5732 5733 5734
5711 5708 5704 5701 5699 5698 5696 5695 5693 5693 5691 5692 5693 5696 5699 5701 5705 5706 5707 5710 5713 5716 5717 5716 5717 5716 5716 5716 5714 5712 5711 5711 5712 5714 5715 5717 5718 5719 5721 5724 5727 5729 5730
5706 5703 5700 5696 5695 5694 5693 5691 5690 5690 5689 5687 5687 5690 5693 5697 5700 5702 5702 5704 5704 5706 5705 5705 5705 5706 5706 5705 5702 5701 5700 5700 5702 5703 5704 5706 5707 5709 5711 5714 5718 5722 5725
5700 5697 5693 5691 5691 5690 5690 5689 5688 5688 5687 5686 5686 5686 5687 5691 5694 5695 5695 5694 5693 5693 5693 5693 5693 5694 5694 5694 5691 5691 5690 5690 5691 5692 5693 5694 5695 5697 5699 5702 5705 5710 5715
5693 5691 5688 5687 5687 5686 5685 5684 5685 5684 5684 5684 5684 5684 5684 5687 5689 5691 5691 5691 5687 5685 5683 5683 5681 5681 5682 5682 5681 5682 5681 5679 5680 5681 5682 5683 5683 5684 5686 5688 5692 5697 5701
5685 5683 5683 5682 5682 5682 5682 5680 5681 5682 5680 5680 5680 5680 5680 5682 5683 5685 5687 5687 5686 5683 5678 5675 5672 5671 5671 5672 5671 5672 5670 5669 5670 5670 5671 5671 5672 5672 5672 5674 5678 5683 5687
5678 5677 5677 5676 5676 5677 5677 5676 5677 5677 5676 5676 5676 5676 5675 5676 5677 5678 5680 5680 5680 5678 5670 5663 5661 5660 5661 5661 5662 5662 5662 5661 5659 5659 5660 5660 5660 5660 5660 5662 5665 5669 5672
5671 5672 5671 5670 5671 5672 5672 5671 5671 5672 5672 5672 5671 5670 5669 5670 5669 5670 5670 5671 5670 5669 5663 5654 5651 5651 5652 5652 5653 5653 5653 5651 5649 5647 5649 5649 5649 5649 5649 5651 5653 5656 5660
5662 5664 5665 5665 5665 5666 5666 5667 5666 5666 5666 5666 5665 5663 5662 5661 5659 5659 5659 5659 5658 5656 5653 5648 5644 5644 5644 5645 5645 5645 5645 5643 5642 5639 5638 5638 5638 5638 5639 5640 5642 5646 5649
5650 5655 5657 5659 5660 5661 5661 5662 5661 5659 5659 5659 5658 5656 5654 5652 5650 5648 5647 5647 5646 5645 5643 5641 5639 5638 5639 5639 5640 5639 5638 5638 5639 5637 5632 5630 5629 5629 5630 5630 5632 5635 5637
5637 5644 5648 5651 5654 5655 5657 5656 5654 5653 5652 5651 5649 5648 5646 5643 5640 5639 5638 5637 5637 5636 5635 5635 5634 5634 5634 5634 5636 5638 5634 5633 5632 5633 5630 5629 5628 5628 5626 5623 5624 5625 5628
5622 5630 5636 5642 5646 5650 5647 5643 5644 5646 5645 5644 5641 5639 5636 5633 5630 5629 5628 5628 5628 5629 5630 5632 5631 5629 5627 5630 5631 5632 5630 5630 5626 5627 5628 5626 5627 5624 5620 5617 5614 5616 5619
5604 5613 5622 5630 5635 5638 5634 5633 5632 5637 5637 5635 5633 5631 5630 5625 5623 5621 5618 5617 5618 5620 5624 5627 5624 5622 5620 5621 5622 5623 5623 5625 5622 5622 5623 5620 5620 5617 5613 5606 5607 5608 5610
5584 5594 5604 5616 5623 5627 5623 5622 5623 5627 5628 5626 5625 5624 5621 5617 5617 5615 5614 5612 5611 5611 5615 5618 5615 5615 5614 5614 5615 5615 5614 5613 5613 5615 5618 5615 5614 5612 5610 5604 5601 5602 5603
5564 5575 5586 5598 5609 5614 5611 5612 5613 5619 5618 5617 5617 5616 5613 5611 5606 5607 5608 5605 5603 5601 5600 5602 5603 5602 5602 5604 5607 5611 5612 5614 5611 5610 5613 5612 5610 5608 5606 5603 5599 5598 5598
5545 5557 5569 5582 5595 5603 5602 5602 5603 5613 5611 5610 5608 5606 5604 5603 5597 5599 5602 5600 5598 5597 5596 5595 5594 5595 5597 5598 5600 5607 5611 5612 5610 5606 5604 5607 5606 5605 5600 5600 5599 5598 5596